Somerville, NJ

7:09 AM EDT on June 28, 2017 (GMT -0400)
Somerset

Weather History for KSMQ - January, 2014

Change the Weather History Date:

Sunday, January 12, 2014

  Actual Average Record
Temperature  
Mean Temperature 39 °F -  
Max Temperature 48 °F 35 °F 65 °F (1975)
Min Temperature 27 °F 16 °F -12 °F (1981)
Degree Days  
Heating Degree Days 26    
Moisture  
Dew Point 29 °F    
Average Humidity 62    
Maximum Humidity 92    
Minimum Humidity 49    
Precipitation  
Precipitation 0.00 in - - ()
Sea Level Pressure  
Sea Level Pressure 29.80 in    
Wind  
Wind Speed 8 mph (WNW)    
Max Wind Speed 13 mph    
Max Gust Speed 29 mph    
Visibility 10 miles    
Events      
Averages and records for this station are not official NWS values.
T = Trace of Precipitation, MM = Missing Value Source: NWS Daily Summary

Daily Weather History Graph

Daily Weather History Graph

Search for Another Location

Airport or City:

Trip Planner

Search our weather history database for the weather conditions in past years. The results will help you decide how hot, cold, wet, or windy it might be!

Date:

Astronomy

Jan. 12, 2014 Rise Set
Actual Time 7:21 AM EST 4:52 PM EST
Civil Twilight 6:51 AM EST 5:23 PM EST
Nautical Twilight 6:17 AM EST 5:57 PM EST
Astronomical Twilight 5:44 AM EST 6:29 PM EST
Moon 2:19 PM EST (1/12) 4:17 AM EST (1/12)
Length of Visible Light 10h 32m
Length of Day
9h 31m
Waxing Gibbous, 89% of the Moon is Illuminated
Jan 12
Waxing Gibbous
Jan 15
Full
Jan 24
Last Quarter
Jan 30
New
Feb 6
First Quarter

Hourly Weather History & Observations

Time (EST) Temp. Windchill Dew Point Humidity Pressure Visibility Wind Dir Wind Speed Gust Speed Precip Events Conditions
12:53 AM 48.9 °F - 41.0 °F 74% 29.44 in 10.0 mi Variable 6.9 mph - 0.00 in   Overcast
1:53 AM 48.0 °F - 37.0 °F 66% 29.47 in 10.0 mi WNW 10.4 mph 19.6 mph N/A   Mostly Cloudy
2:53 AM 46.0 °F 41.9 °F 33.1 °F 61% 29.51 in 10.0 mi West 8.1 mph 20.7 mph N/A   Clear
3:53 AM 44.1 °F 40.1 °F 33.1 °F 65% 29.53 in 10.0 mi WNW 6.9 mph - N/A   Overcast
4:53 AM 43.0 °F 38.8 °F 32.0 °F 65% 29.55 in 10.0 mi WNW 6.9 mph - N/A   Mostly Cloudy
5:53 AM 42.1 °F 36.6 °F 30.9 °F 65% 29.58 in 10.0 mi West 9.2 mph - N/A   Clear
6:53 AM 41.0 °F 35.8 °F 30.0 °F 65% 29.63 in 10.0 mi WNW 8.1 mph - N/A   Scattered Clouds
7:53 AM 41.0 °F 34.3 °F 28.9 °F 62% 29.67 in 10.0 mi WNW 11.5 mph 18.4 mph N/A   Scattered Clouds
8:53 AM 42.1 °F 37.1 °F 28.9 °F 60% 29.73 in 10.0 mi West 8.1 mph - N/A   Overcast
9:53 AM 43.0 °F 38.2 °F 28.9 °F 58% 29.78 in 10.0 mi WNW 8.1 mph - N/A   Overcast
10:53 AM 43.0 °F 37.7 °F 28.9 °F 58% 29.81 in 10.0 mi West 9.2 mph 16.1 mph N/A   Overcast
11:53 AM 43.0 °F 37.2 °F 28.0 °F 56% 29.81 in 10.0 mi West 10.4 mph 24.2 mph N/A   Overcast
12:53 PM 43.0 °F 37.7 °F 28.0 °F 56% 29.82 in 10.0 mi WNW 9.2 mph 26.5 mph N/A   Overcast
1:53 PM 44.1 °F 37.7 °F 27.0 °F 51% 29.83 in 10.0 mi NW 12.7 mph 28.8 mph N/A   Mostly Cloudy
2:53 PM 44.1 °F 38.6 °F 26.1 °F 49% 29.88 in 10.0 mi WNW 10.4 mph 20.7 mph N/A   Mostly Cloudy
3:53 PM 43.0 °F 38.8 °F 26.1 °F 51% 29.93 in 10.0 mi West 6.9 mph 18.4 mph N/A   Mostly Cloudy
4:53 PM 41.0 °F 36.4 °F 26.1 °F 55% 29.96 in 10.0 mi WNW 6.9 mph - N/A   Partly Cloudy
5:53 PM 41.0 °F 35.2 °F 27.0 °F 57% 29.99 in 10.0 mi West 9.2 mph - N/A   Overcast
6:53 PM 39.9 °F 35.1 °F 25.0 °F 55% 30.02 in 10.0 mi Variable 6.9 mph - N/A   Mostly Cloudy
7:53 PM 39.0 °F 35.7 °F 26.1 °F 60% 30.03 in 10.0 mi Variable 4.6 mph - N/A   Clear
8:53 PM 37.9 °F - 26.1 °F 62% 30.04 in 10.0 mi Calm Calm - N/A   Clear
9:53 PM 37.0 °F - 26.1 °F 65% 30.07 in 10.0 mi Calm Calm - N/A   Clear
10:53 PM 30.0 °F - 25.0 °F 82% 30.07 in 10.0 mi Calm Calm - N/A   Clear
11:53 PM 27.0 °F 23.0 °F 25.0 °F 92% 30.08 in 10.0 mi SSE 3.5 mph - N/A   Clear